Total_Precipitation_Accumulation
0.44 0.66 0.98 1.30 1.63 2.00 2.47 2.67 2.61 2.17 1.72 1.52 1.33 1.24 1.13 1.09 1.12 1.13 1.08 1.03 0.94 0.90 0.97 0.83 0.69 0.66 0.64 0.58 0.69 0.77 0.74 0.56 0.74 0.82 0.39 0.17 0.10 0.10 0.08 0.07 0.07 0.07 0.10
0.64 1.02 1.46 1.68 1.65 1.90 2.39 2.43 1.98 1.53 1.25 1.11 0.99 0.88 0.86 0.85 0.82 0.79 0.77 0.75 0.76 0.78 0.81 0.74 0.62 0.53 0.52 0.49 0.51 0.58 0.58 0.47 0.73 0.80 0.64 0.33 0.16 0.10 0.06 0.09 0.10 0.12 0.14
0.82 1.15 1.50 1.58 1.48 1.69 1.74 1.45 1.16 0.90 0.71 0.61 0.57 0.59 0.57 0.56 0.50 0.45 0.44 0.50 0.55 0.56 0.54 0.51 0.51 0.49 0.45 0.43 0.45 0.56 0.65 0.53 0.56 0.75 0.84 0.58 0.29 0.24 0.17 0.19 0.24 0.26 0.31
0.52 0.75 0.94 1.07 1.14 1.15 1.00 0.82 0.70 0.59 0.53 0.52 0.46 0.52 0.47 0.42 0.38 0.33 0.33 0.37 0.41 0.41 0.39 0.40 0.47 0.49 0.49 0.50 0.47 0.49 0.57 0.59 0.50 0.56 0.68 0.71 0.67 0.55 0.30 0.21 0.23 0.30 0.34
0.29 0.41 0.46 0.53 0.60 0.61 0.56 0.46 0.53 0.59 0.54 0.50 0.44 0.40 0.34 0.30 0.28 0.30 0.34 0.39 0.41 0.40 0.38 0.36 0.37 0.44 0.47 0.48 0.46 0.45 0.49 0.54 0.51 0.48 0.52 0.61 0.72 0.68 0.52 0.29 0.21 0.28 0.31
0.26 0.30 0.28 0.25 0.25 0.26 0.25 0.25 0.32 0.40 0.39 0.39 0.38 0.35 0.32 0.31 0.28 0.28 0.29 0.32 0.35 0.38 0.38 0.37 0.38 0.39 0.39 0.39 0.40 0.40 0.41 0.44 0.46 0.47 0.49 0.52 0.54 0.58 0.66 0.52 0.40 0.36 0.37
0.18 0.21 0.21 0.18 0.16 0.14 0.13 0.12 0.14 0.22 0.26 0.28 0.31 0.30 0.31 0.30 0.28 0.25 0.24 0.25 0.26 0.31 0.34 0.36 0.40 0.45 0.45 0.45 0.43 0.43 0.43 0.45 0.47 0.47 0.49 0.51 0.52 0.59 0.68 0.64 0.53 0.50 0.56
0.09 0.11 0.11 0.10 0.09 0.08 0.07 0.06 0.06 0.08 0.09 0.13 0.17 0.19 0.22 0.23 0.24 0.31 0.29 0.25 0.24 0.27 0.33 0.38 0.41 0.44 0.49 0.51 0.57 0.59 0.59 0.57 0.54 0.49 0.56 0.58 0.55 0.61 0.67 0.70 0.70 0.63 0.69
0.05 0.05 0.05 0.05 0.04 0.04 0.04 0.04 0.04 0.04 0.05 0.05 0.08 0.10 0.14 0.17 0.24 0.30 0.28 0.24 0.24 0.23 0.24 0.31 0.41 0.43 0.45 0.52 0.60 0.64 0.67 0.69 0.69 0.67 0.69 0.70 0.65 0.63 0.65 0.72 0.75 0.74 0.71
0.03 0.03 0.03 0.03 0.03 0.02 0.02 0.02 0.03 0.03 0.03 0.03 0.03 0.05 0.11 0.18 0.25 0.30 0.26 0.22 0.21 0.19 0.20 0.24 0.31 0.34 0.37 0.45 0.57 0.65 0.71 0.79 0.85 0.81 0.78 0.81 0.78 0.74 0.72 0.73 0.75 0.80 0.83
0.01 0.01 0.01 0.01 0.01 0.01 0.01 0.02 0.02 0.02 0.02 0.02 0.03 0.07 0.16 0.20 0.27 0.42 0.40 0.24 0.18 0.16 0.15 0.16 0.18 0.19 0.22 0.30 0.44 0.66 0.77 0.87 0.90 0.89 0.90 0.87 0.88 0.82 0.70 0.70 0.72 0.76 0.80
0.00 0.00 0.00 0.01 0.01 0.01 0.01 0.01 0.01 0.02 0.02 0.02 0.02 0.05 0.14 0.19 0.23 0.30 0.33 0.25 0.20 0.16 0.14 0.13 0.12 0.11 0.13 0.22 0.36 0.54 0.70 0.83 0.95 0.96 0.94 0.83 0.76 0.76 0.72 0.70 0.68 0.66 0.69
0.00 0.00 0.00 0.00 0.01 0.01 0.01 0.01 0.01 0.01 0.01 0.02 0.02 0.04 0.06 0.07 0.08 0.10 0.14 0.19 0.21 0.22 0.18 0.15 0.14 0.18 0.24 0.31 0.40 0.46 0.58 0.73 0.82 0.84 0.81 0.75 0.75 0.72 0.71 0.67 0.63 0.58 0.54
0.00 0.00 0.00 0.00 0.00 0.00 0.00 0.01 0.01 0.01 0.01 0.02 0.03 0.03 0.03 0.03 0.03 0.06 0.10 0.16 0.18 0.19 0.18 0.17 0.21 0.27 0.33 0.37 0.37 0.39 0.46 0.51 0.58 0.63 0.62 0.60 0.62 0.64 0.63 0.60 0.53 0.49 0.44
0.01 0.01 0.01 0.01 0.01 0.01 0.01 0.01 0.01 0.02 0.02 0.04 0.08 0.08 0.06 0.05 0.05 0.07 0.08 0.10 0.11 0.11 0.14 0.18 0.22 0.27 0.30 0.31 0.34 0.36 0.33 0.37 0.37 0.36 0.40 0.43 0.46 0.50 0.54 0.51 0.45 0.41 0.37
0.02 0.02 0.02 0.02 0.01 0.01 0.02 0.01 0.01 0.01 0.04 0.07 0.13 0.16 0.13 0.07 0.04 0.05 0.05 0.07 0.07 0.08 0.13 0.16 0.19 0.20 0.20 0.23 0.24 0.23 0.20 0.22 0.25 0.26 0.25 0.25 0.33 0.38 0.43 0.44 0.42 0.39 0.34
0.03 0.02 0.01 0.01 0.01 0.01 0.01 0.02 0.02 0.02 0.09 0.12 0.11 0.17 0.18 0.08 0.04 0.05 0.06 0.08 0.08 0.11 0.15 0.17 0.18 0.19 0.20 0.14 0.10 0.08 0.12 0.16 0.21 0.24 0.24 0.19 0.18 0.24 0.31 0.36 0.34 0.33 0.31
0.01 0.00 0.00 0.00 0.00 0.00 0.00 0.02 0.04 0.05 0.12 0.15 0.11 0.17 0.19 0.10 0.10 0.11 0.12 0.13 0.14 0.17 0.21 0.22 0.21 0.23 0.23 0.14 0.08 0.06 0.08 0.14 0.19 0.21 0.21 0.19 0.16 0.18 0.21 0.28 0.30 0.27 0.25
0.00 0.00 0.00 0.00 0.00 0.01 0.01 0.02 0.07 0.10 0.11 0.13 0.13 0.19 0.25 0.21 0.21 0.21 0.23 0.24 0.27 0.29 0.28 0.28 0.27 0.28 0.28 0.18 0.11 0.09 0.12 0.18 0.21 0.22 0.21 0.18 0.15 0.13 0.15 0.20 0.25 0.27 0.25
0.00 0.00 0.00 0.00 0.01 0.01 0.03 0.05 0.07 0.11 0.14 0.14 0.16 0.22 0.34 0.38 0.35 0.33 0.34 0.34 0.40 0.43 0.42 0.38 0.33 0.33 0.35 0.28 0.17 0.14 0.18 0.25 0.26 0.28 0.25 0.21 0.17 0.13 0.11 0.16 0.19 0.21 0.22
0.00 0.01 0.01 0.01 0.02 0.03 0.06 0.10 0.12 0.14 0.16 0.19 0.22 0.28 0.40 0.52 0.50 0.48 0.46 0.46 0.48 0.54 0.58 0.57 0.51 0.45 0.44 0.39 0.24 0.18 0.24 0.29 0.31 0.30 0.29 0.24 0.20 0.16 0.13 0.13 0.17 0.18 0.19
0.01 0.02 0.03 0.04 0.06 0.08 0.15 0.20 0.21 0.21 0.24 0.27 0.30 0.35 0.46 0.50 0.53 0.58 0.62 0.67 0.68 0.69 0.71 0.73 0.68 0.63 0.57 0.46 0.33 0.22 0.23 0.31 0.39 0.38 0.34 0.31 0.28 0.23 0.18 0.15 0.14 0.16 0.18
0.02 0.03 0.05 0.08 0.11 0.15 0.25 0.33 0.34 0.36 0.37 0.36 0.36 0.41 0.48 0.58 0.71 0.73 0.70 0.74 0.79 0.84 0.88 0.87 0.80 0.76 0.77 0.65 0.43 0.31 0.27 0.32 0.43 0.49 0.49 0.42 0.37 0.32 0.26 0.23 0.18 0.16 0.15
0.03 0.04 0.07 0.12 0.17 0.24 0.36 0.44 0.47 0.49 0.48 0.43 0.40 0.44 0.52 0.60 0.72 0.84 0.86 0.89 0.91 0.94 0.99 0.99 0.89 0.86 0.92 0.84 0.59 0.44 0.38 0.38 0.45 0.50 0.51 0.49 0.48 0.44 0.37 0.31 0.25 0.19 0.16
0.04 0.06 0.10 0.16 0.20 0.29 0.43 0.51 0.55 0.58 0.56 0.50 0.44 0.45 0.51 0.58 0.65 0.75 0.84 0.90 0.93 0.91 0.93 0.96 0.89 0.86 0.95 0.90 0.69 0.57 0.53 0.50 0.51 0.54 0.56 0.57 0.56 0.52 0.45 0.38 0.30 0.25 0.23
0.07 0.11 0.15 0.21 0.24 0.30 0.41 0.50 0.64 0.76 0.77 0.67 0.56 0.51 0.49 0.54 0.60 0.68 0.68 0.64 0.68 0.67 0.67 0.71 0.66 0.65 0.82 0.87 0.69 0.57 0.57 0.56 0.54 0.55 0.55 0.55 0.55 0.52 0.44 0.39 0.34 0.31 0.27